{"data":{"norad_id":66732,"epoch":"2026-05-25T04:16:01.646112Z","epoch_age_seconds":49743,"freshness":"FRESH","line1":"1 66732U 25276BU  26145.17779683  .00005371  00000+0  25667-3 0  9996","line2":"2 66732  97.4176 218.9857 0005001 102.8641 257.3153 15.19422903 26929","mean_motion":15.19422903,"eccentricity":0.0005001,"inclination_deg":97.4176,"raan_deg":218.9857,"arg_perigee_deg":102.8641,"mean_anomaly_deg":257.3153,"bstar":0.00025667,"rev_number":2692,"period_min":94.772824416218,"perigee_km":504.14003864227,"apogee_km":511.02713637389,"semimajor_km":6885.7205875081,"source":"CELESTRAK","updated_at":"2026-05-25T13:38:13.372861Z"}}